| time (UTC) | temp F | wind direction | speed knots | gust knots | rain 1hr in | rain 24hr in | rain mn in | humidity % | barometer mb |
| 20260503060215 | 34 | 16 | 0.0 | 0.0 | 0.00 | 0.00 | 0.00 | 90 | 1019.7 |
| 20260503054702 | 35 | 344 | 0.0 | 0.0 | 0.00 | 0.00 | 0.00 | 90 | 1019.8 |
| 20260503054159 | 35 | 5 | 0.0 | 0.0 | 0.00 | 0.00 | 0.00 | 89 | 1019.9 |
| 20260503053657 | 35 | 352 | 0.0 | 0.0 | 0.00 | 0.00 | 0.00 | 89 | 1019.8 |
| 20260503053155 | 35 | 350 | 0.0 | 0.0 | 0.00 | 0.00 | 0.00 | 89 | 1019.8 |
| 20260503052651 | 35 | 352 | 0.0 | 0.0 | 0.00 | 0.00 | 0.00 | 89 | 1019.8 |
| 20260503052148 | 35 | 351 | 0.0 | 0.0 | 0.00 | 0.00 | 0.00 | 89 | 1019.6 |
| 20260503051643 | 35 | 351 | 0.0 | 0.0 | 0.00 | 0.00 | 0.00 | 89 | 1019.7 |
| 20260503051141 | 35 | 350 | 0.0 | 0.0 | 0.00 | 0.00 | 0.00 | 89 | 1019.9 |
| 20260503050638 | 36 | 351 | 0.0 | 0.0 | 0.00 | 0.00 | 0.00 | 88 | 1019.7 |
| 20260503050134 | 36 | 333 | 0.0 | 0.0 | 0.00 | 0.00 | 0.00 | 88 | 1019.6 |
| 20260503045632 | 36 | 332 | 0.0 | 0.0 | 0.00 | 0.00 | 0.00 | 88 | 1019.4 |
| 20260503045129 | 36 | 1 | 0.0 | 0.0 | 0.00 | 0.00 | 0.00 | 88 | 1019.8 |
| 20260503044625 | 36 | 2 | 0.0 | 0.0 | 0.00 | 0.00 | 0.00 | 87 | 1019.5 |
| 20260503044123 | 36 | 1 | 0.0 | 0.0 | 0.00 | 0.00 | 0.00 | 87 | 1019.6 |
| 20260503043620 | 37 | 0 | 0.0 | 0.0 | 0.00 | 0.00 | 0.00 | 87 | 1019.7 |
| 20260503043116 | 37 | 0 | 0.0 | 0.0 | 0.00 | 0.00 | 0.00 | 86 | 1019.5 |
| 20260503042613 | 37 | 8 | 0.0 | 0.0 | 0.00 | 0.00 | 0.00 | 86 | 1019.5 |
| 20260503042109 | 37 | 8 | 0.0 | 0.0 | 0.00 | 0.00 | 0.00 | 86 | 1019.6 |
| 20260503041605 | 37 | 8 | 0.0 | 0.0 | 0.00 | 0.00 | 0.00 | 86 | 1019.5 |
| 20260503041104 | 37 | 9 | 0.0 | 0.0 | 0.00 | 0.00 | 0.00 | 85 | 1019.6 |
| 20260503040601 | 37 | 9 | 0.0 | 0.0 | 0.00 | 0.00 | 0.00 | 85 | 1019.3 |
| 20260503040058 | 37 | 9 | 0.0 | 0.0 | 0.00 | 0.00 | 0.00 | 84 | 1019.3 |
| 20260503035554 | 38 | 13 | 0.0 | 0.0 | 0.00 | 0.00 | 0.00 | 84 | 1019.6 |
| 20260503035052 | 38 | 14 | 0.0 | 0.0 | 0.00 | 0.00 | 0.00 | 83 | 1019.5 |
| 20260503034549 | 38 | 7 | 0.0 | 0.0 | 0.00 | 0.00 | 0.00 | 83 | 1019.4 |
| 20260503034046 | 39 | 8 | 0.0 | 0.0 | 0.00 | 0.00 | 0.00 | 83 | 1019.4 |
| 20260503033543 | 39 | 9 | 0.0 | 0.0 | 0.00 | 0.00 | 0.00 | 82 | 1019.4 |
| 20260503033041 | 39 | 11 | 0.0 | 0.0 | 0.00 | 0.00 | 0.00 | 81 | 1019.3 |
| 20260503032539 | 39 | 6 | 0.0 | 0.0 | 0.00 | 0.00 | 0.00 | 80 | 1019.2 |
| 20260503032037 | 40 | 9 | 0.0 | 0.0 | 0.00 | 0.00 | 0.00 | 79 | 1019.2 |
| 20260503031535 | 40 | 14 | 0.0 | 0.0 | 0.00 | 0.00 | 0.00 | 78 | 1019.2 |
| 20260503031032 | 40 | 15 | 0.0 | 0.0 | 0.00 | 0.00 | 0.00 | 76 | 1019.0 |
| 20260503030527 | 41 | 342 | 0.9 | 0.9 | 0.00 | 0.00 | 0.00 | 76 | 1019.0 |
| 20260503030025 | 41 | 10 | 0.0 | 0.0 | 0.00 | 0.00 | 0.00 | 73 | 1019.2 |
| 20260503025521 | 42 | 338 | 0.0 | 0.0 | 0.00 | 0.00 | 0.00 | 71 | 1019.1 |
| 20260503025020 | 43 | 338 | 0.0 | 0.0 | 0.00 | 0.00 | 0.00 | 68 | 1019.1 |
| 20260503024515 | 44 | 338 | 0.0 | 0.0 | 0.00 | 0.00 | 0.00 | 65 | 1019.0 |
| 20260503024013 | 45 | 338 | 0.0 | 0.0 | 0.00 | 0.00 | 0.00 | 61 | 1019.2 |
| 20260503023509 | 45 | 9 | 0.0 | 0.0 | 0.00 | 0.00 | 0.00 | 58 | 1019.1 |
| 20260503023007 | 46 | 10 | 0.9 | 1.7 | 0.00 | 0.00 | 0.00 | 56 | 1019.0 |
| 20260503022502 | 46 | 36 | 1.7 | 1.7 | 0.00 | 0.00 | 0.00 | 55 | 1019.1 |
| 20260503021957 | 46 | 1 | 2.6 | 2.6 | 0.00 | 0.00 | 0.00 | 55 | 1019.0 |
| 20260503021454 | 46 | 15 | 0.0 | 0.9 | 0.00 | 0.00 | 0.00 | 55 | 1019.1 |
| 20260503020951 | 46 | 46 | 0.9 | 0.9 | 0.00 | 0.00 | 0.00 | 56 | 1019.0 |
| 20260503020449 | 46 | 352 | 0.9 | 1.7 | 0.00 | 0.00 | 0.00 | 54 | 1018.8 |
| 20260503015945 | 46 | 20 | 0.0 | 0.0 | 0.00 | 0.00 | 0.00 | 55 | 1018.8 |
| 20260503015442 | 47 | 22 | 0.0 | 0.9 | 0.00 | 0.00 | 0.00 | 55 | 1018.6 |
| 20260503014938 | 47 | 27 | 0.9 | 1.7 | 0.00 | 0.00 | 0.00 | 54 | 1018.6 |
| 20260503014435 | 47 | 354 | 0.9 | 1.7 | 0.00 | 0.00 | 0.00 | 54 | 1018.7 |
| 20260503013933 | 48 | 11 | 0.0 | 0.9 | 0.00 | 0.00 | 0.00 | 54 | 1018.4 |
| 20260503013430 | 48 | 353 | 0.9 | 1.7 | 0.00 | 0.00 | 0.00 | 53 | 1018.4 |
| 20260503012927 | 48 | 330 | 0.9 | 1.7 | 0.00 | 0.00 | 0.00 | 52 | 1018.3 |
| 20260503012425 | 49 | 16 | 0.0 | 0.9 | 0.00 | 0.00 | 0.00 | 51 | 1018.1 |
| 20260503011920 | 49 | 16 | 1.7 | 2.6 | 0.00 | 0.00 | 0.00 | 51 | 1018.1 |
| 20260503011412 | 49 | 24 | 3.5 | 5.2 | 0.00 | 0.00 | 0.00 | 51 | 1018.0 |
| 20260503010909 | 49 | 2 | 0.0 | 0.9 | 0.00 | 0.00 | 0.00 | 52 | 1018.0 |
| 20260503010406 | 49 | 343 | 1.7 | 1.7 | 0.00 | 0.00 | 0.00 | 52 | 1018.0 |
| 20260503005903 | 49 | 3 | 0.9 | 0.9 | 0.00 | 0.00 | 0.00 | 52 | 1018.0 |
| 20260503005400 | 49 | 22 | 0.9 | 0.9 | 0.00 | 0.00 | 0.00 | 51 | 1018.0 |
| 20260503004856 | 50 | 307 | 1.7 | 1.7 | 0.00 | 0.00 | 0.00 | 51 | 1017.7 |
| 20260503004354 | 50 | 9 | 0.0 | 0.9 | 0.00 | 0.00 | 0.00 | 50 | 1017.9 |
| 20260503003851 | 50 | 350 | 1.7 | 1.7 | 0.00 | 0.00 | 0.00 | 49 | 1017.8 |
| 20260503003348 | 50 | 6 | 2.6 | 4.3 | 0.00 | 0.00 | 0.00 | 49 | 1017.8 |
| 20260503002845 | 51 | 5 | 1.7 | 2.6 | 0.00 | 0.00 | 0.00 | 48 | 1017.5 |
| 20260503002342 | 51 | 36 | 2.6 | 4.3 | 0.00 | 0.00 | 0.00 | 48 | 1017.5 |
| 20260503001838 | 51 | 30 | 0.9 | 0.9 | 0.00 | 0.00 | 0.00 | 49 | 1017.5 |
| 20260503001335 | 51 | 356 | 1.7 | 1.7 | 0.00 | 0.00 | 0.00 | 48 | 1017.5 |
| 20260503000832 | 51 | 343 | 0.0 | 0.9 | 0.00 | 0.00 | 0.00 | 48 | 1017.3 |
| 20260503000330 | 52 | 295 | 4.3 | 5.2 | 0.00 | 0.00 | 0.00 | 46 | 1017.1 |
| 20260502235827 | 52 | 356 | 0.0 | 0.0 | 0.00 | 0.00 | 0.00 | 47 | 1017.3 |
| 20260502235324 | 52 | 1 | 2.6 | 2.6 | 0.00 | 0.00 | 0.00 | 46 | 1017.0 |
| 20260502234820 | 52 | 323 | 0.0 | 0.9 | 0.00 | 0.00 | 0.00 | 47 | 1017.1 |
| 20260502234317 | 52 | 7 | 0.0 | 0.0 | 0.00 | 0.00 | 0.00 | 47 | 1016.8 |
| 20260502233814 | 53 | 299 | 0.0 | 0.9 | 0.00 | 0.00 | 0.00 | 47 | 1016.9 |
| 20260502233311 | 53 | 330 | 2.6 | 2.6 | 0.00 | 0.00 | 0.00 | 45 | 1017.0 |
| 20260502232807 | 53 | 311 | 2.6 | 4.3 | 0.00 | 0.00 | 0.00 | 45 | 1016.9 |
| 20260502232305 | 53 | 301 | 0.9 | 1.7 | 0.00 | 0.00 | 0.00 | 46 | 1016.7 |
| 20260502231800 | 53 | 30 | 0.0 | 0.9 | 0.00 | 0.00 | 0.00 | 45 | 1016.8 |
| 20260502231258 | 53 | 327 | 1.7 | 1.7 | 0.00 | 0.00 | 0.00 | 46 | 1016.7 |
| 20260502230756 | 53 | 308 | 0.9 | 0.9 | 0.00 | 0.00 | 0.00 | 45 | 1016.8 |
| 20260502230254 | 53 | 317 | 0.9 | 0.9 | 0.00 | 0.00 | 0.00 | 46 | 1016.9 |
| 20260502225750 | 53 | 297 | 1.7 | 1.7 | 0.00 | 0.00 | 0.00 | 46 | 1016.7 |
| 20260502225247 | 53 | 358 | 0.9 | 0.9 | 0.00 | 0.00 | 0.00 | 47 | 1016.8 |
| 20260502224744 | 53 | 5 | 0.9 | 0.9 | 0.00 | 0.00 | 0.00 | 47 | 1016.7 |
| 20260502224240 | 53 | 25 | 2.6 | 4.3 | 0.00 | 0.00 | 0.00 | 46 | 1016.8 |
| 20260502223738 | 53 | 319 | 1.7 | 1.7 | 0.00 | 0.00 | 0.00 | 47 | 1016.8 |
| 20260502223236 | 53 | 344 | 0.0 | 0.0 | 0.00 | 0.00 | 0.00 | 47 | 1016.6 |
| 20260502222733 | 53 | 299 | 2.6 | 4.3 | 0.00 | 0.00 | 0.00 | 45 | 1016.8 |
| 20260502222230 | 53 | 7 | 3.5 | 6.1 | 0.00 | 0.00 | 0.00 | 44 | 1016.7 |
| 20260502221725 | 53 | 339 | 0.9 | 1.7 | 0.00 | 0.00 | 0.00 | 45 | 1016.7 |
| 20260502221223 | 53 | 313 | 0.9 | 1.7 | 0.00 | 0.00 | 0.00 | 45 | 1016.8 |
| 20260502220719 | 53 | 2 | 1.7 | 2.6 | 0.00 | 0.00 | 0.00 | 45 | 1016.5 |
| 20260502220215 | 54 | 306 | 3.5 | 4.3 | 0.00 | 0.00 | 0.00 | 44 | 1016.5 |
| 20260502215712 | 54 | 6 | 2.6 | 2.6 | 0.00 | 0.00 | 0.00 | 47 | 1016.5 |
| 20260502215209 | 54 | 307 | 1.7 | 2.6 | 0.00 | 0.00 | 0.00 | 45 | 1016.3 |
| 20260502214707 | 54 | 359 | 0.9 | 1.7 | 0.00 | 0.00 | 0.00 | 44 | 1016.5 |
| 20260502214204 | 54 | 300 | 0.9 | 0.9 | 0.00 | 0.00 | 0.00 | 45 | 1016.3 |
| 20260502213701 | 55 | 299 | 3.5 | 4.3 | 0.00 | 0.00 | 0.00 | 43 | 1016.2 |
| 20260502213158 | 55 | 336 | 2.6 | 2.6 | 0.00 | 0.00 | 0.00 | 43 | 1016.2 |
| 20260502212656 | 55 | 344 | 1.7 | 1.7 | 0.00 | 0.00 | 0.00 | 43 | 1016.4 |
| 20260502212154 | 55 | 307 | 2.6 | 2.6 | 0.00 | 0.00 | 0.00 | 42 | 1016.5 |
| 20260502211650 | 55 | 45 | 0.9 | 1.7 | 0.00 | 0.00 | 0.00 | 42 | 1016.2 |
| 20260502211147 | 55 | 32 | 2.6 | 4.3 | 0.00 | 0.00 | 0.00 | 42 | 1016.4 |
| 20260502210644 | 55 | 23 | 4.3 | 5.2 | 0.00 | 0.00 | 0.00 | 42 | 1016.2 |
| 20260502210141 | 55 | 3 | 4.3 | 5.2 | 0.00 | 0.00 | 0.00 | 41 | 1016.4 |
| 20260502205638 | 55 | 358 | 0.9 | 0.9 | 0.00 | 0.00 | 0.00 | 43 | 1016.2 |
| 20260502205135 | 56 | 11 | 2.6 | 5.2 | 0.00 | 0.00 | 0.00 | 42 | 1016.3 |
| 20260502204632 | 56 | 3 | 4.3 | 6.1 | 0.00 | 0.00 | 0.00 | 43 | 1016.4 |
| 20260502204129 | 56 | 287 | 1.7 | 1.7 | 0.00 | 0.00 | 0.00 | 44 | 1016.3 |
| 20260502203626 | 55 | 295 | 2.6 | 2.6 | 0.00 | 0.00 | 0.00 | 45 | 1016.4 |
| 20260502203125 | 56 | 344 | 1.7 | 1.7 | 0.00 | 0.00 | 0.00 | 45 | 1016.3 |
| 20260502202619 | 55 | 351 | 2.6 | 2.6 | 0.00 | 0.00 | 0.00 | 42 | 1016.4 |
| 20260502202117 | 56 | 287 | 1.7 | 2.6 | 0.00 | 0.00 | 0.00 | 43 | 1016.3 |
| 20260502201613 | 56 | 12 | 0.0 | 0.9 | 0.00 | 0.00 | 0.00 | 43 | 1016.5 |
| 20260502201110 | 56 | 292 | 4.3 | 7.0 | 0.00 | 0.00 | 0.00 | 44 | 1016.6 |
| 20260502200606 | 56 | 288 | 0.9 | 1.7 | 0.00 | 0.00 | 0.00 | 42 | 1016.5 |
| 20260502200104 | 57 | 309 | 0.9 | 1.7 | 0.00 | 0.00 | 0.00 | 42 | 1016.5 |
| 20260502195602 | 57 | 309 | 0.9 | 0.9 | 0.00 | 0.00 | 0.00 | 43 | 1016.8 |
| 20260502195057 | 56 | 296 | 1.7 | 1.7 | 0.00 | 0.00 | 0.00 | 45 | 1016.6 |
| 20260502194554 | 55 | 8 | 6.1 | 7.8 | 0.00 | 0.00 | 0.00 | 42 | 1016.8 |
| 20260502194050 | 56 | 310 | 0.9 | 0.9 | 0.00 | 0.00 | 0.00 | 45 | 1016.5 |
| 20260502193548 | 57 | 330 | 2.6 | 2.6 | 0.00 | 0.00 | 0.00 | 42 | 1016.7 |
| 20260502193044 | 57 | 321 | 0.0 | 0.9 | 0.00 | 0.00 | 0.00 | 45 | 1016.6 |
| 20260502192540 | 56 | 287 | 3.5 | 7.0 | 0.00 | 0.00 | 0.00 | 44 | 1016.7 |
| 20260502192038 | 57 | 19 | 1.7 | 1.7 | 0.00 | 0.00 | 0.00 | 42 | 1016.8 |
| 20260502191534 | 58 | 16 | 2.6 | 4.3 | 0.00 | 0.00 | 0.00 | 42 | 1016.8 |
| 20260502191032 | 57 | 295 | 4.3 | 6.1 | 0.00 | 0.00 | 0.00 | 47 | 1017.0 |
| 20260502190530 | 55 | 334 | 2.6 | 2.6 | 0.00 | 0.00 | 0.00 | 43 | 1017.0 |
| 20260502190027 | 55 | 341 | 1.7 | 2.6 | 0.00 | 0.00 | 0.00 | 45 | 1017.0 |
| 20260502185521 | 55 | 287 | 0.9 | 0.9 | 0.00 | 0.00 | 0.00 | 46 | 1017.1 |
| 20260502185018 | 55 | 303 | 1.7 | 1.7 | 0.00 | 0.00 | 0.00 | 47 | 1017.0 |
| 20260502184514 | 55 | 359 | 3.5 | 5.2 | 0.00 | 0.00 | 0.00 | 44 | 1017.1 |
| 20260502184010 | 56 | 19 | 3.5 | 4.3 | 0.00 | 0.00 | 0.00 | 44 | 1017.1 |
| 20260502183507 | 59 | 13 | 2.6 | 5.2 | 0.00 | 0.00 | 0.00 | 45 | 1017.1 |
| 20260502183002 | 57 | 313 | 1.7 | 1.7 | 0.00 | 0.00 | 0.00 | 51 | 1017.4 |
| 20260502182457 | 55 | 353 | 2.6 | 2.6 | 0.00 | 0.00 | 0.00 | 45 | 1017.1 |
| 20260502181948 | 55 | 19 | 2.6 | 5.2 | 0.00 | 0.00 | 0.00 | 44 | 1017.1 |
| 20260502181446 | 58 | 334 | 3.5 | 4.3 | 0.00 | 0.00 | 0.00 | 45 | 1017.3 |
| 20260502180945 | 55 | 24 | 1.7 | 4.3 | 0.00 | 0.00 | 0.00 | 46 | 1017.3 |
| 20260502180441 | 55 | 14 | 2.6 | 5.2 | 0.00 | 0.00 | 0.00 | 48 | 1017.4 |
| 20260502170400 | 54 | 287 | 0.9 | 0.9 | 0.00 | 0.00 | 0.00 | 51 | 1017.8 |
| 20260502164347 | 54 | 323 | 3.5 | 4.3 | 0.00 | 0.00 | 0.00 | 47 | 1018.0 |
| 20260502163843 | 54 | 288 | 3.5 | 4.3 | 0.00 | 0.00 | 0.00 | 50 | 1017.9 |
| 20260502163340 | 54 | 30 | 1.7 | 2.6 | 0.00 | 0.00 | 0.00 | 47 | 1018.0 |
| 20260502162838 | 57 | 16 | 2.6 | 4.3 | 0.00 | 0.00 | 0.00 | 47 | 1017.8 |
| 20260502162334 | 57 | 2 | 4.3 | 5.2 | 0.00 | 0.00 | 0.00 | 48 | 1018.1 |
| 20260502161831 | 56 | 44 | 2.6 | 4.3 | 0.00 | 0.00 | 0.00 | 49 | 1018.2 |
| 20260502161327 | 57 | 330 | 3.5 | 4.3 | 0.00 | 0.00 | 0.00 | 45 | 1018.3 |
| 20260502160825 | 57 | 45 | 0.9 | 1.7 | 0.00 | 0.00 | 0.00 | 43 | 1018.2 |
| 20260502160324 | 56 | 312 | 1.7 | 1.7 | 0.00 | 0.00 | 0.00 | 51 | 1018.3 |
| 20260502152259 | 55 | 49 | 0.9 | 0.9 | 0.00 | 0.00 | 0.00 | 53 | 1018.6 |
| 20260502151756 | 54 | 32 | 2.6 | 4.3 | 0.00 | 0.00 | 0.00 | 49 | 1018.4 |
| 20260502151253 | 55 | 356 | 1.7 | 2.6 | 0.00 | 0.00 | 0.00 | 51 | 1018.6 |
| 20260502150751 | 54 | 323 | 1.7 | 1.7 | 0.00 | 0.00 | 0.00 | 50 | 1018.4 |
| 20260502150248 | 54 | 33 | 0.9 | 1.7 | 0.00 | 0.00 | 0.00 | 52 | 1018.4 |
| 20260502130636 | 47 | 344 | 0.0 | 0.9 | 0.00 | 0.00 | 0.00 | 83 | 1018.6 |
| 20260502130134 | 46 | 344 | 0.0 | 0.0 | 0.00 | 0.00 | 0.00 | 85 | 1018.5 |
| 20260502123620 | 41 | 339 | 0.0 | 0.0 | 0.00 | 0.00 | 0.00 | 92 | 1018.4 |
| 20260502123116 | 41 | 342 | 0.0 | 0.9 | 0.00 | 0.00 | 0.00 | 92 | 1018.6 |
| 20260502122612 | 40 | 334 | 0.0 | 0.0 | 0.00 | 0.00 | 0.00 | 92 | 1018.3 |
| 20260502122109 | 40 | 328 | 0.0 | 0.0 | 0.00 | 0.00 | 0.00 | 92 | 1018.2 |
| 20260502121607 | 39 | 310 | 0.0 | 0.0 | 0.00 | 0.00 | 0.00 | 92 | 1018.2 |
| 20260502121105 | 39 | 314 | 0.0 | 0.0 | 0.00 | 0.00 | 0.00 | 92 | 1018.4 |
| 20260502120600 | 39 | 300 | 0.9 | 0.9 | 0.00 | 0.00 | 0.00 | 92 | 1018.5 |
| 20260502115556 | 39 | 324 | 0.0 | 0.0 | 0.00 | 0.00 | 0.00 | 92 | 1018.1 |
| 20260502115051 | 39 | 333 | 0.0 | 0.0 | 0.00 | 0.00 | 0.00 | 92 | 1018.0 |
| 20260502114548 | 39 | 341 | 0.0 | 0.0 | 0.00 | 0.00 | 0.00 | 92 | 1018.1 |
| 20260502114045 | 39 | 340 | 0.0 | 0.0 | 0.00 | 0.00 | 0.00 | 92 | 1018.1 |
| 20260502113542 | 38 | 334 | 0.0 | 0.0 | 0.00 | 0.00 | 0.00 | 92 | 1018.1 |
| 20260502113041 | 38 | 334 | 0.0 | 0.0 | 0.00 | 0.00 | 0.00 | 92 | 1018.3 |
| 20260502112538 | 38 | 332 | 0.0 | 0.0 | 0.00 | 0.00 | 0.00 | 92 | 1018.3 |
| 20260502112036 | 38 | 316 | 0.0 | 0.0 | 0.00 | 0.00 | 0.00 | 92 | 1018.2 |
| 20260502111533 | 37 | 322 | 0.0 | 0.0 | 0.00 | 0.00 | 0.00 | 92 | 1018.2 |
| 20260502111030 | 37 | 334 | 0.0 | 0.0 | 0.00 | 0.00 | 0.00 | 92 | 1018.1 |
| 20260502110527 | 37 | 337 | 0.0 | 0.0 | 0.00 | 0.00 | 0.00 | 92 | 1017.9 |
| 20260502110025 | 37 | 334 | 0.0 | 0.0 | 0.00 | 0.00 | 0.00 | 92 | 1018.0 |
| 20260502105522 | 37 | 334 | 0.0 | 0.0 | 0.00 | 0.00 | 0.00 | 92 | 1017.9 |
| 20260502105020 | 37 | 322 | 0.0 | 0.0 | 0.00 | 0.00 | 0.00 | 92 | 1017.9 |
| 20260502104516 | 37 | 338 | 0.0 | 0.0 | 0.00 | 0.00 | 0.00 | 92 | 1017.8 |
| 20260502104014 | 36 | 338 | 0.0 | 0.0 | 0.00 | 0.00 | 0.00 | 92 | 1018.0 |
| 20260502103512 | 36 | 338 | 0.0 | 0.0 | 0.00 | 0.00 | 0.00 | 92 | 1017.7 |
| 20260502103010 | 36 | 336 | 0.0 | 0.0 | 0.00 | 0.00 | 0.00 | 92 | 1018.0 |
| 20260502102506 | 36 | 333 | 0.0 | 0.0 | 0.00 | 0.00 | 0.00 | 92 | 1017.8 |
| 20260502102003 | 36 | 336 | 0.0 | 0.0 | 0.00 | 0.00 | 0.00 | 92 | 1017.8 |
| 20260502101501 | 36 | 335 | 0.0 | 0.0 | 0.00 | 0.00 | 0.00 | 92 | 1018.1 |
| 20260502100959 | 35 | 334 | 0.0 | 0.0 | 0.00 | 0.00 | 0.00 | 92 | 1018.1 |
| 20260502100457 | 36 | 334 | 0.0 | 0.0 | 0.00 | 0.00 | 0.00 | 92 | 1018.0 |
| 20260502091431 | 36 | 333 | 0.0 | 0.0 | 0.00 | 0.00 | 0.00 | 92 | 1017.8 |
| 20260502090929 | 35 | 332 | 0.0 | 0.0 | 0.00 | 0.00 | 0.00 | 92 | 1018.1 |
| 20260502090426 | 36 | 332 | 0.0 | 0.0 | 0.00 | 0.00 | 0.00 | 92 | 1018.3 |
| 20260502071320 | 36 | 334 | 0.0 | 0.0 | 0.00 | 0.00 | 0.00 | 92 | 1017.5 |
| 20260502070819 | 36 | 334 | 0.0 | 0.0 | 0.00 | 0.00 | 0.00 | 92 | 1017.5 |
| 20260502070316 | 36 | 334 | 0.0 | 0.0 | 0.00 | 0.00 | 0.00 | 92 | 1017.9 |
| 20260502065815 | 36 | 334 | 0.0 | 0.0 | 0.00 | 0.00 | 0.00 | 92 | 1017.9 |
| 20260502065312 | 36 | 334 | 0.0 | 0.0 | 0.00 | 0.00 | 0.00 | 92 | 1017.8 |
| 20260502064810 | 36 | 334 | 0.0 | 0.0 | 0.00 | 0.00 | 0.00 | 92 | 1018.1 |
| 20260502064308 | 36 | 334 | 0.0 | 0.0 | 0.00 | 0.00 | 0.00 | 92 | 1018.0 |
| 20260502063805 | 36 | 334 | 0.0 | 0.0 | 0.00 | 0.00 | 0.00 | 92 | 1017.9 |
| 20260502063303 | 36 | 334 | 0.0 | 0.0 | 0.00 | 0.00 | 0.00 | 92 | 1018.0 |